User: anonymous   Login
Location: NJAA Observatory
(40.6819°N, 74.8979°W)
Time: 15:29:19
(UTC-05:00)
Language:

Cosmos 2082 - Orbit

View from above orbital plane
View from above orbital plane
View from above satellite
View from above satellite

Ground track
Ground track

The orbit data is extracted from the following two-line orbital elements,

1 20624U 90046A   15025.57761654  .00000344  00000-0  20502-3 0  1228
2 20624 071.0386 242.9626 0016938 278.6928 109.2892 14.14122720273693
Epoch (UTC): 25 January 2015 13:51:46
Eccentricity: 0.0016938
inclination: 71.0386°
perigee height: 833 km
apogee height: 857 km
right ascension of ascending node: 242.9626°
argument of perigee: 278.6928°
revolutions per day: 14.14122720
mean anomaly at epoch: 109.2892°
orbit number at epoch: 27369

The dashed part of the orbit path shows where the satellite is in the earth's shadow,  

DLR